Track STARLINK-31459 now! 10-day predictions STARLINK-31459 is classified as:
1 59233U 24049C 24325.99824330 .00004071 00000-0 10475-3 0 9997 2 59233 43.0042 309.7348 0001883 268.4980 91.5660 15.40677460 39816